KB1RMA-13 Weather Reports


Display with metric or nautical units.
time (UTC)temp
F
wind
direction
speed
MPH
gust
MPH
rain 1hr
in
rain 24hr
in
rain mn
in
humidity
%
barometer
mb
20260505041607 58 216 5.0 11.0 0.00 0.00 0.00 58 1009.8
20260505041104 58 213 7.0 13.0 0.00 0.00 0.00 58 1009.6
20260505040601 58 206 7.0 18.0 0.00 0.00 0.00 58 1009.4
20260505040058 59 196 13.0 15.0 0.00 0.00 0.00 57 1009.4
20260505035554 59 206 8.0 23.0 0.00 0.00 0.00 57 1009.6
20260505035051 59 225 10.0 16.0 0.00 0.00 0.00 57 1009.5
20260505034548 59 233 10.0 14.0 0.00 0.00 0.00 57 1009.6
20260505034044 59 222 6.0 16.0 0.00 0.00 0.00 56 1009.5
20260505033541 59 236 9.0 17.0 0.00 0.00 0.00 56 1009.3
20260505033040 59 200 10.0 19.0 0.00 0.00 0.00 55 1009.3
20260505032537 59 208 12.0 21.0 0.00 0.00 0.00 55 1009.4
20260505032033 59 201 9.0 16.0 0.00 0.00 0.00 55 1009.3
20260505031531 59 223 6.0 11.0 0.00 0.00 0.00 55 1009.2
20260505031027 60 216 5.0 16.0 0.00 0.00 0.00 54 1009.1
20260505030524 60 217 7.0 17.0 0.00 0.00 0.00 54 1009.1
20260505030020 60 214 11.0 15.0 0.00 0.00 0.00 54 1009.4
20260505025516 60 242 5.0 9.0 0.00 0.00 0.00 54 1009.4
20260505025016 60 213 14.0 14.0 0.00 0.00 0.00 54 1009.2
20260505024512 60 211 7.0 18.0 0.00 0.00 0.00 53 1009.2
20260505024009 60 207 22.0 22.0 0.00 0.00 0.00 53 1009.2
20260505023506 60 231 11.0 15.0 0.00 0.00 0.00 53 1009.3
20260505023003 60 209 7.0 14.0 0.00 0.00 0.00 53 1009.2
20260505022501 60 218 10.0 15.0 0.00 0.00 0.00 52 1009.3
20260505021958 61 219 4.0 19.0 0.00 0.00 0.00 52 1009.2
20260505021454 61 208 11.0 16.0 0.00 0.00 0.00 51 1009.3
20260505020950 61 196 9.0 14.0 0.00 0.00 0.00 51 1009.4
20260505020445 61 222 12.0 19.0 0.00 0.00 0.00 51 1009.3
20260505015942 62 201 13.0 22.0 0.00 0.00 0.00 50 1009.3
20260505015440 62 218 10.0 25.0 0.00 0.00 0.00 49 1009.1
20260505014937 62 222 13.0 19.0 0.00 0.00 0.00 49 1009.1
20260505014433 62 204 15.0 16.0 0.00 0.00 0.00 50 1009.2
20260505013931 62 229 13.0 19.0 0.00 0.00 0.00 49 1008.9
20260505013428 62 218 11.0 17.0 0.00 0.00 0.00 49 1008.8
20260505012925 63 200 14.0 22.0 0.00 0.00 0.00 49 1008.9
20260505012423 63 199 12.0 17.0 0.00 0.00 0.00 49 1008.9
20260505011919 63 218 8.0 15.0 0.00 0.00 0.00 49 1008.7
20260505011416 63 196 9.0 20.0 0.00 0.00 0.00 48 1008.5
20260505010913 63 192 8.0 18.0 0.00 0.00 0.00 48 1008.5
20260505010408 63 199 7.0 13.0 0.00 0.00 0.00 48 1008.6
20260505005904 64 206 8.0 15.0 0.00 0.00 0.00 48 1008.2
20260505005401 64 223 13.0 18.0 0.00 0.00 0.00 48 1008.2
20260505004859 64 239 15.0 24.0 0.00 0.00 0.00 47 1007.7
20260505004355 64 200 8.0 21.0 0.00 0.00 0.00 47 1008.0
20260505003852 65 205 7.0 24.0 0.00 0.00 0.00 46 1007.7
20260505003350 65 202 20.0 23.0 0.00 0.00 0.00 46 1007.5
20260505002845 65 213 7.0 15.0 0.00 0.00 0.00 45 1007.5
20260505002342 65 216 8.0 19.0 0.00 0.00 0.00 44 1007.3
20260505001841 66 207 13.0 20.0 0.00 0.00 0.00 44 1006.7
20260505001338 66 225 17.0 21.0 0.00 0.00 0.00 43 1007.0
20260505000835 66 191 12.0 24.0 0.00 0.00 0.00 43 1006.7
20260505000333 66 216 4.0 13.0 0.00 0.00 0.00 42 1006.4
20260504235829 67 202 14.0 19.0 0.00 0.00 0.00 41 1006.4
20260504235326 67 207 4.0 16.0 0.00 0.00 0.00 40 1006.5
20260504234823 68 189 5.0 9.0 0.00 0.00 0.00 37 1006.3
20260504234320 68 194 6.0 9.0 0.00 0.00 0.00 36 1006.2
20260504233817 68 202 4.0 9.0 0.00 0.00 0.00 36 1006.2
20260504233312 69 210 4.0 5.0 0.00 0.00 0.00 36 1005.9
20260504232809 69 227 5.0 12.0 0.00 0.00 0.00 35 1006.0
20260504232307 70 237 2.0 15.0 0.00 0.00 0.00 35 1005.8
20260504231803 70 266 2.0 9.0 0.00 0.00 0.00 35 1005.9
20260504231300 70 209 10.0 14.0 0.00 0.00 0.00 34 1005.9
20260504230756 71 219 16.0 20.0 0.00 0.00 0.00 33 1005.6
20260504230254 71 251 3.0 9.0 0.00 0.00 0.00 33 1005.6
20260504225753 71 242 7.0 12.0 0.00 0.00 0.00 33 1005.5
20260504225248 71 230 6.0 13.0 0.00 0.00 0.00 33 1005.7
20260504224746 70 261 5.0 16.0 0.00 0.00 0.00 34 1005.5
20260504224243 71 241 10.0 16.0 0.00 0.00 0.00 33 1005.3
20260504223739 71 295 6.0 19.0 0.00 0.00 0.00 33 1005.4
20260504223235 71 253 8.0 14.0 0.00 0.00 0.00 33 1005.5
20260504222732 71 236 8.0 19.0 0.00 0.00 0.00 32 1005.2
20260504222229 72 222 7.0 12.0 0.00 0.00 0.00 32 1005.6
20260504221726 72 263 9.0 17.0 0.00 0.00 0.00 33 1005.5
20260504221223 72 201 15.0 19.0 0.00 0.00 0.00 32 1005.3
20260504220720 71 242 12.0 14.0 0.00 0.00 0.00 32 1005.4
20260504220217 71 262 7.0 15.0 0.00 0.00 0.00 32 1005.1
20260504215714 72 290 4.0 20.0 0.00 0.00 0.00 31 1005.4
20260504215211 73 267 5.0 20.0 0.00 0.00 0.00 31 1005.2
20260504214707 72 225 17.0 25.0 0.00 0.00 0.00 31 1005.3
20260504214203 73 248 9.0 18.0 0.00 0.00 0.00 32 1005.6
20260504213700 72 261 6.0 16.0 0.00 0.00 0.00 32 1005.2
20260504213157 72 231 5.0 21.0 0.00 0.00 0.00 31 1005.4
20260504212653 73 267 13.0 24.0 0.00 0.00 0.00 31 1005.5
20260504212150 73 221 11.0 21.0 0.00 0.00 0.00 31 1005.1
20260504211647 73 263 6.0 10.0 0.00 0.00 0.00 31 1005.1
20260504211144 72 247 10.0 16.0 0.00 0.00 0.00 31 1005.5
20260504210642 72 238 7.0 26.0 0.00 0.00 0.00 31 1005.3
20260504210138 73 246 11.0 20.0 0.00 0.00 0.00 30 1005.4
20260504205636 72 237 9.0 28.0 0.00 0.00 0.00 30 1005.4
20260504205132 71 214 11.0 23.0 0.00 0.00 0.00 32 1005.6
20260504204631 72 279 7.0 17.0 0.00 0.00 0.00 30 1005.5
20260504204130 73 257 5.0 14.0 0.00 0.00 0.00 31 1005.5
20260504203628 72 293 6.0 20.0 0.00 0.00 0.00 30 1005.6
20260504203126 73 218 18.0 18.0 0.00 0.00 0.00 30 1005.5
20260504202625 72 286 7.0 21.0 0.00 0.00 0.00 30 1005.6
20260504202123 72 272 6.0 17.0 0.00 0.00 0.00 30 1005.6
20260504201619 73 263 7.0 21.0 0.00 0.00 0.00 30 1005.4
20260504201117 72 255 13.0 29.0 0.00 0.00 0.00 30 1005.5
20260504200614 74 245 16.0 22.0 0.00 0.00 0.00 29 1005.5
20260504200110 72 252 4.0 21.0 0.00 0.00 0.00 30 1005.7
20260504195607 72 278 16.0 23.0 0.00 0.00 0.00 30 1005.6
20260504195103 71 258 7.0 24.0 0.00 0.00 0.00 31 1005.6
20260504194600 71 252 12.0 26.0 0.00 0.00 0.00 31 1005.6
20260504194055 72 247 25.0 25.0 0.00 0.00 0.00 29 1005.5
20260504193552 72 251 15.0 28.0 0.00 0.00 0.00 30 1005.8
20260504193051 71 219 14.0 24.0 0.00 0.00 0.00 31 1005.7
20260504192549 71 235 15.0 26.0 0.00 0.00 0.00 30 1005.7
20260504192046 72 250 14.0 27.0 0.00 0.00 0.00 30 1005.8
20260504191544 72 273 10.0 17.0 0.00 0.00 0.00 30 1005.9
20260504191040 71 253 11.0 28.0 0.00 0.00 0.00 30 1005.9
20260504190537 72 216 13.0 26.0 0.00 0.00 0.00 31 1005.9
20260504190032 71 230 6.0 25.0 0.00 0.00 0.00 30 1006.0
20260504185530 72 294 7.0 48.0 0.00 0.00 0.00 31 1006.0
20260504185026 71 240 6.0 24.0 0.00 0.00 0.00 30 1006.0
20260504184521 71 247 23.0 29.0 0.00 0.00 0.00 30 1006.1
20260504184017 71 260 8.0 26.0 0.00 0.00 0.00 32 1006.2
20260504183515 71 271 9.0 27.0 0.00 0.00 0.00 30 1006.2
20260504183013 70 242 19.0 33.0 0.00 0.00 0.00 30 1006.2
20260504182509 70 209 11.0 26.0 0.00 0.00 0.00 30 1006.3
20260504182007 71 226 34.0 34.0 0.00 0.00 0.00 31 1006.3
20260504181503 70 227 21.0 36.0 0.00 0.00 0.00 30 1006.4
20260504181002 71 236 10.0 24.0 0.00 0.00 0.00 32 1006.4
20260504180500 71 217 15.0 27.0 0.00 0.00 0.00 31 1006.4
20260504175959 69 274 5.0 27.0 0.00 0.00 0.00 32 1006.2
20260504175455 70 271 14.0 34.0 0.00 0.00 0.00 31 1006.5
20260504174953 70 235 7.0 25.0 0.00 0.00 0.00 30 1006.4
20260504174450 70 244 10.0 29.0 0.00 0.00 0.00 31 1006.5
20260504173947 69 271 13.0 30.0 0.00 0.00 0.00 32 1006.9
20260504173443 70 269 4.0 22.0 0.00 0.00 0.00 33 1006.6
20260504172942 69 288 15.0 28.0 0.00 0.00 0.00 32 1006.7
20260504172437 68 265 9.0 36.0 0.00 0.00 0.00 32 1006.9
20260504171934 69 293 20.0 25.0 0.00 0.00 0.00 32 1006.8
20260504171431 69 273 15.0 27.0 0.00 0.00 0.00 32 1006.9
20260504170928 69 245 14.0 34.0 0.00 0.00 0.00 31 1006.7
20260504170424 68 232 12.0 30.0 0.00 0.00 0.00 34 1006.8
20260504160343 67 236 10.0 34.0 0.00 0.00 0.00 36 1007.3
20260504150808 65 274 10.0 22.0 0.00 0.00 0.00 39 1008.3
20260504150304 64 271 11.0 15.0 0.00 0.00 0.00 39 1008.7
20260504141235 62 243 12.0 27.0 0.00 0.00 0.00 41 1009.2
20260504140731 62 254 20.0 24.0 0.00 0.00 0.00 41 1009.3
20260504140227 62 268 6.0 18.0 0.00 0.00 0.00 42 1009.2
20260504130655 59 246 19.0 24.0 0.00 0.00 0.00 45 1009.9
20260504130151 60 232 14.0 15.0 0.00 0.00 0.00 45 1010.2
20260504120116 52 253 11.0 15.0 0.00 0.00 0.00 54 1011.0
20260504110543 48 195 4.0 8.0 0.00 0.00 0.00 60 1011.0
20260504100500 46 234 3.0 8.0 0.00 0.00 0.00 62 1010.7
20260504081858 45 246 3.0 7.0 0.00 0.00 0.00 61 1010.6
20260504081354 45 227 2.0 6.0 0.00 0.00 0.00 60 1010.5
20260504080850 45 198 5.0 7.0 0.00 0.00 0.00 60 1010.5
20260504080348 45 227 2.0 6.0 0.00 0.00 0.00 60 1010.5
20260504070315 43 228 3.0 6.0 0.00 0.00 0.00 60 1010.3
20260504060235 42 243 8.0 8.0 0.00 0.00 0.00 64 1010.5
20260504050703 41 215 4.0 7.0 0.00 0.00 0.00 62 1010.2
20260504050200 41 210 4.0 7.0 0.00 0.00 0.00 62 1010.1
20260504045658 41 226 4.0 6.0 0.00 0.00 0.00 63 1010.2
20260504045157 41 241 6.0 8.0 0.00 0.00 0.00 62 1010.3
20260504044655 41 226 5.0 6.0 0.00 0.00 0.00 63 1010.2
20260504044152 41 232 3.0 8.0 0.00 0.00 0.00 62 1010.2
20260504043649 41 240 5.0 7.0 0.00 0.00 0.00 62 1010.1
20260504043146 42 215 7.0 8.0 0.00 0.00 0.00 62 1010.4
20260504042644 42 226 4.0 6.0 0.00 0.00 0.00 62 1010.1